Location: Chicoutimi
(48.4330°N, 71.0670°W)
Time: 02:59:54
(UTC-05:00)

ISS - Visible Passes

Search period start: 05 March 2015 00:00
Search period end: 15 March 2015 01:00
Orbit: 394 x 406 km, 51.6° (Epoch: 04 March)

Date Brightness Start Highest point End Pass type
(mag) Time Alt. Az. Time Alt. Az. Time Alt. Az.
09 Mar -0.2 06:28:04 10° SSE 06:29:09 11° SE 06:30:20 10° ESE visible
11 Mar -1.0 06:13:59 10° SSW 06:16:28 21° SE 06:19:01 10° E visible
12 Mar -0.5 05:20:45 10° SSE 05:22:06 12° SE 05:23:33 10° ESE visible
13 Mar -2.1 06:00:17 10° SW 06:03:17 37° SSE 06:06:18 10° ENE visible
14 Mar -1.4 05:07:45 20° SSE 05:08:34 22° SE 05:11:10 10° E visible
